Flag Island, MN

1:17 PM CDT on May 28, 2017 (GMT -0500)
Flag Island

Weather History for KFGN - November, 2013

Change the Weather History Date:

Monday, November 18, 2013

  Actual Average Record
Temperature  
Mean Temperature 21 °F -  
Max Temperature 23 °F 27 °F 46 °F (2012)
Min Temperature 19 °F 18 °F 3 °F (1996)
Degree Days  
Heating Degree Days 44    
Moisture  
Dew Point 17 °F    
Average Humidity 88    
Maximum Humidity 93    
Minimum Humidity 80    
Precipitation  
Precipitation 0.00 in - - ()
Sea Level Pressure  
Sea Level Pressure 30.05 in    
Wind  
Wind Speed 11 mph (NW)    
Max Wind Speed 18 mph    
Max Gust Speed 17 mph    
Visibility 10 miles    
Events      
Averages and records for this station are not official NWS values.
T = Trace of Precipitation, MM = Missing Value Source: NWS Daily Summary

Daily Weather History Graph

Daily Weather History Graph

Search for Another Location

Airport or City:

Trip Planner

Search our weather history database for the weather conditions in past years. The results will help you decide how hot, cold, wet, or windy it might be!

Date:

Astronomy

Nov. 18, 2013 Rise Set
Actual Time 7:35 AM CST 4:33 PM CST
Civil Twilight 6:59 AM CST 5:09 PM CST
Nautical Twilight 6:20 AM CST 5:48 PM CST
Astronomical Twilight 5:43 AM CST 6:26 PM CST
Moon 5:35 PM CST (11/18) 8:25 AM CST (11/18)
Length of Visible Light 10h 09m
Length of Day
8h 58m
Full, 99% of the Moon is Illuminated
Nov 18
Full
Nov 25
Last Quarter
Dec 2
New
Dec 9
First Quarter
Dec 17
Full

Hourly Weather History & Observations

Time (CST) Temp. Windchill Dew Point Humidity Pressure Visibility Wind Dir Wind Speed Gust Speed Precip Events Conditions
12:13 AM 23.0 °F 10.1 °F 19.4 °F 86% 29.79 in 7.0 mi NNW 15.0 mph - N/A   Overcast
12:33 AM 21.2 °F 7.3 °F 19.4 °F 93% 29.80 in 10.0 mi NNW 16.1 mph - N/A   Overcast
12:54 AM 21.2 °F 7.3 °F 17.6 °F 86% 29.82 in 10.0 mi NNW 16.1 mph - N/A   Overcast
1:13 AM 21.2 °F 6.4 °F 17.6 °F 86% 29.83 in 10.0 mi North 18.4 mph - N/A   Overcast
1:33 AM 21.2 °F 6.8 °F 17.6 °F 86% 29.83 in 10.0 mi NNW 17.3 mph - N/A   Overcast
1:53 AM 21.2 °F 7.8 °F 17.6 °F 86% 29.84 in 10.0 mi NNW 15.0 mph - N/A   Overcast
2:13 AM 21.2 °F 8.9 °F 17.6 °F 86% 29.85 in 10.0 mi North 12.7 mph - N/A   Overcast
2:33 AM 21.2 °F 9.5 °F 17.6 °F 86% 29.86 in 10.0 mi North 11.5 mph 17.3 mph N/A   Overcast
2:53 AM 21.2 °F 8.9 °F 17.6 °F 86% 29.88 in 10.0 mi NNW 12.7 mph - N/A   Overcast
3:13 AM 21.2 °F 8.9 °F 17.6 °F 86% 29.88 in 10.0 mi NNW 12.7 mph - N/A   Overcast
3:34 AM 21.2 °F 8.9 °F 17.6 °F 86% 29.89 in 10.0 mi NNW 12.7 mph - N/A   Overcast
3:53 AM 21.2 °F 8.3 °F 17.6 °F 86% 29.90 in 10.0 mi NNW 13.8 mph - N/A   Overcast
4:13 AM 21.2 °F 9.5 °F 17.6 °F 86% 29.91 in 10.0 mi NNW 11.5 mph - N/A   Overcast
4:33 AM 21.2 °F 8.3 °F 17.6 °F 86% 29.92 in 10.0 mi NNW 13.8 mph - N/A   Overcast
4:53 AM 21.2 °F 8.3 °F 17.6 °F 86% 29.93 in 10.0 mi NNW 13.8 mph - N/A   Overcast
5:14 AM 21.2 °F 8.3 °F 17.6 °F 86% 29.94 in 10.0 mi NNW 13.8 mph - N/A   Overcast
5:33 AM 21.2 °F 9.5 °F 17.6 °F 86% 29.94 in 10.0 mi NNW 11.5 mph - N/A   Overcast
5:53 AM 21.2 °F 8.3 °F 17.6 °F 86% 29.95 in 10.0 mi North 13.8 mph - N/A   Overcast
6:14 AM 21.2 °F 8.9 °F 17.6 °F 86% 29.95 in 10.0 mi North 12.7 mph - N/A   Overcast
6:33 AM 21.2 °F 9.5 °F 17.6 °F 86% 29.97 in 10.0 mi North 11.5 mph - N/A   Overcast
6:53 AM 21.2 °F 8.9 °F 17.6 °F 86% 29.98 in 10.0 mi NNW 12.7 mph - N/A   Overcast
7:14 AM 21.2 °F 9.5 °F 15.8 °F 80% 29.99 in 10.0 mi North 11.5 mph - N/A   Overcast
7:33 AM 19.4 °F 7.9 °F 15.8 °F 86% 29.99 in 10.0 mi North 10.4 mph - N/A   Overcast
7:53 AM 21.2 °F 9.5 °F 15.8 °F 80% 30.00 in 10.0 mi North 11.5 mph - N/A   Overcast
8:14 AM 21.2 °F 9.5 °F 17.6 °F 86% 30.01 in 10.0 mi North 11.5 mph - N/A   Overcast
8:33 AM 19.4 °F 8.6 °F 15.8 °F 86% 30.02 in 10.0 mi North 9.2 mph - N/A   Overcast
8:53 AM 19.4 °F 7.9 °F 15.8 °F 86% 30.02 in 10.0 mi North 10.4 mph - N/A   Overcast
9:13 AM 19.4 °F 9.5 °F 15.8 °F 86% 30.03 in 10.0 mi NNW 8.1 mph - N/A   Overcast
9:33 AM 19.4 °F 8.6 °F 17.6 °F 93% 30.04 in 10.0 mi WNW 9.2 mph - N/A   Overcast
9:54 AM 19.4 °F 7.2 °F 17.6 °F 93% 30.06 in 10.0 mi West 11.5 mph - N/A   Overcast
10:13 AM 19.4 °F 7.2 °F 17.6 °F 93% 30.06 in 10.0 mi WNW 11.5 mph - N/A   Overcast
10:33 AM 19.4 °F 7.2 °F 17.6 °F 93% 30.08 in 10.0 mi WNW 11.5 mph - N/A   Overcast
10:54 AM 19.4 °F 7.9 °F 15.8 °F 86% 30.09 in 10.0 mi WNW 10.4 mph - N/A   Overcast
11:13 AM 19.4 °F 7.2 °F 15.8 °F 86% 30.09 in 10.0 mi WNW 11.5 mph - N/A   Overcast
11:33 AM 19.4 °F 6.6 °F 15.8 °F 86% 30.09 in 10.0 mi WNW 12.7 mph - N/A   Overcast
11:53 AM 21.2 °F 8.9 °F 15.8 °F 80% 30.09 in 10.0 mi NW 12.7 mph - N/A   Overcast
12:13 PM 21.2 °F 8.9 °F 15.8 °F 80% 30.10 in 10.0 mi WNW 12.7 mph 17.3 mph N/A   Overcast
12:34 PM 19.4 °F 7.2 °F 15.8 °F 86% 30.10 in 10.0 mi NW 11.5 mph - N/A   Overcast
12:53 PM 21.2 °F 11.7 °F 15.8 °F 80% 30.11 in 10.0 mi NW 8.1 mph 11.5 mph N/A   Overcast
1:13 PM 21.2 °F 11.7 °F 17.6 °F 86% 30.12 in 10.0 mi NNW 8.1 mph - N/A   Overcast
1:34 PM 21.2 °F 12.6 °F 17.6 °F 86% 30.13 in 10.0 mi NW 6.9 mph - N/A   Overcast
1:53 PM 19.4 °F 12.8 °F 15.8 °F 86% 30.13 in 10.0 mi NW 4.6 mph - N/A   Overcast
2:13 PM 21.2 °F 13.6 °F 15.8 °F 80% 30.13 in 10.0 mi West 5.8 mph - N/A   Overcast
2:34 PM 21.2 °F 13.6 °F 15.8 °F 80% 30.13 in 10.0 mi NNW 5.8 mph - N/A   Overcast
2:53 PM 21.2 °F 14.9 °F 17.6 °F 86% 30.13 in 10.0 mi West 4.6 mph - N/A   Overcast
3:13 PM 21.2 °F 11.7 °F 17.6 °F 86% 30.14 in 10.0 mi NW 8.1 mph - N/A   Overcast
3:34 PM 21.2 °F 14.9 °F 17.6 °F 86% 30.14 in 10.0 mi West 4.6 mph - N/A   Overcast
3:53 PM 19.4 °F 11.5 °F 17.6 °F 93% 30.15 in 10.0 mi West 5.8 mph - N/A   Overcast
4:13 PM 19.4 °F 10.4 °F 15.8 °F 86% 30.15 in 10.0 mi West 6.9 mph - N/A   Overcast
4:34 PM 19.4 °F - 15.8 °F 86% 30.15 in 10.0 mi Calm Calm - N/A   Overcast
4:53 PM 19.4 °F 14.3 °F 17.6 °F 93% 30.15 in 10.0 mi NW 3.5 mph - N/A   Overcast
5:13 PM 19.4 °F - 17.6 °F 93% 30.15 in 10.0 mi Calm Calm - N/A   Overcast
5:34 PM 19.4 °F 11.5 °F 17.6 °F 93% 30.16 in 10.0 mi WSW 5.8 mph - N/A   Overcast
5:53 PM 19.4 °F 14.3 °F 15.8 °F 86% 30.17 in 10.0 mi West 3.5 mph - N/A   Overcast
6:13 PM 19.4 °F - 17.6 °F 93% 30.16 in 10.0 mi Calm Calm - N/A   Overcast
6:34 PM 19.4 °F - 17.6 °F 93% 30.16 in 10.0 mi Calm Calm - N/A   Overcast
6:53 PM 19.4 °F - 17.6 °F 93% 30.16 in 10.0 mi Calm Calm - N/A   Overcast
7:13 PM 19.4 °F - 17.6 °F 93% 30.16 in 10.0 mi Calm Calm - N/A   Overcast
7:34 PM 19.4 °F - 17.6 °F 93% 30.17 in 10.0 mi Calm Calm - N/A   Overcast
7:53 PM 19.4 °F 9.5 °F 17.6 °F 93% 30.17 in 10.0 mi SW 8.1 mph - N/A   Overcast
8:13 PM 19.4 °F 12.8 °F 17.6 °F 93% 30.17 in 10.0 mi SSE 4.6 mph - N/A   Overcast
8:33 PM 19.4 °F - 17.6 °F 93% 30.17 in 10.0 mi Calm Calm - N/A   Overcast
8:53 PM 19.4 °F - 17.6 °F 93% 30.18 in 10.0 mi Calm Calm - N/A   Overcast
9:14 PM 19.4 °F - 17.6 °F 93% 30.17 in 10.0 mi Calm Calm - N/A   Overcast
9:33 PM 19.4 °F - 17.6 °F 93% 30.16 in 10.0 mi Calm Calm - N/A   Overcast
9:53 PM 19.4 °F - 17.6 °F 93% 30.17 in 10.0 mi Calm Calm - N/A   Overcast
10:14 PM 21.2 °F - 17.6 °F 86% 30.17 in 10.0 mi Calm Calm - N/A   Overcast
10:33 PM 21.2 °F 13.6 °F 19.4 °F 93% 30.16 in 10.0 mi SSE 5.8 mph - N/A   Overcast
10:54 PM 21.2 °F 13.6 °F 19.4 °F 93% 30.17 in 10.0 mi SW 5.8 mph - N/A   Overcast
11:13 PM 21.2 °F 12.6 °F 19.4 °F 93% 30.16 in 10.0 mi SSW 6.9 mph - N/A   Overcast
11:33 PM 21.2 °F 13.6 °F 17.6 °F 86% 30.16 in 10.0 mi SSE 5.8 mph - N/A   Overcast
11:54 PM 21.2 °F 10.9 °F 19.4 °F 93% 30.16 in 10.0 mi SSE 9.2 mph - N/A   Overcast